Belmar-Farmingdale, NJ

12:15 AM EST on November 20, 2019 (GMT -0500)
Allaire

Weather History for KBLM - September, 2019

Change the Weather History Date:

Sunday, September 22, 2019

  Actual Average Record
Temperature  
Mean Temperature 71 °F -  
Max Temperature 84 °F 70 °F 87 °F (2010)
Min Temperature 60 °F 55 °F 41 °F (1997)
Cooling Degree Days 6    
Growing Degree Days 21 (Base 50)    
Moisture  
Dew Point 63 °F    
Average Humidity 79    
Maximum Humidity 100    
Minimum Humidity 49    
Precipitation  
Precipitation 0.00 in - - ()
Sea Level Pressure  
Sea Level Pressure 30.14 in    
Wind  
Wind Speed 5 mph ()    
Max Wind Speed 12 mph    
Max Gust Speed -    
Visibility 8.8 miles    
Events      
Averages and records for this station are not official NWS values.
T = Trace of Precipitation, MM = Missing Value Source: Averaged Metar Reports

Daily Weather History Graph

Daily Weather History Graph

Search for Another Location

Airport or City:

Astronomy

Sep. 22, 2019 Rise Set
Actual Time 6:43 AM EDT 6:54 PM EDT
Civil Twilight 6:16 AM EDT 7:21 PM EDT
Nautical Twilight 5:44 AM EDT 7:52 PM EDT
Astronomical Twilight 5:12 AM EDT 8:25 PM EDT
Moon No Moon Rise 2:47 PM EDT (9/22)
Length of Visible Light 13h 04m
Length of Day
12h 10m
Last Quarter, 44% of the Moon is Illuminated
Sep 22
Last Quarter
Sep 28
New
Oct 5
First Quarter
Oct 13
Full
Oct 21
Last Quarter

Hourly Weather History & Observations

Time (EDT) Temp. Heat Index Dew Point Humidity Pressure Visibility Wind Dir Wind Speed Gust Speed Precip Events Conditions
12:56 AM 63.0 °F - 61.0 °F 93% 30.20 in 10.0 mi SW 5.8 mph - N/A   Clear
1:56 AM 62.1 °F - 60.1 °F 93% 30.20 in 10.0 mi WSW 4.6 mph - N/A   Clear
2:56 AM 62.1 °F - 62.1 °F 100% 30.19 in 10.0 mi WSW 4.6 mph - N/A   Clear
3:56 AM 63.0 °F - 62.1 °F 97% 30.19 in 10.0 mi SW 3.5 mph - N/A   Clear
4:56 AM 62.1 °F - 61.0 °F 96% 30.19 in 9.0 mi SW 5.8 mph - N/A   Clear
5:56 AM 61.0 °F - 60.1 °F 97% 30.19 in 2.5 mi WSW 3.5 mph - N/A   Partly Cloudy
6:04 AM 60.8 °F - 60.8 °F 100% 30.19 in 1.2 mi SW 5.8 mph - N/A   Partly Cloudy
6:11 AM 60.8 °F - 60.8 °F 100% 30.19 in 1.0 mi SW 4.6 mph - N/A   Mist
6:18 AM 60.8 °F - 60.8 °F 100% 30.18 in 2.0 mi SW 3.5 mph - N/A   Mostly Cloudy
6:26 AM 60.8 °F - 59.0 °F 94% 30.18 in 10.0 mi Calm Calm - N/A   Mostly Cloudy
6:56 AM 60.1 °F - 60.1 °F 100% 30.19 in 10.0 mi Calm Calm - N/A   Mostly Cloudy
7:04 AM 60.8 °F - 59.0 °F 94% 30.18 in 10.0 mi SW 4.6 mph - N/A   Scattered Clouds
7:56 AM 63.0 °F - 62.1 °F 97% 30.19 in 10.0 mi SSW 4.6 mph - N/A   Clear
8:56 AM 69.1 °F - 64.0 °F 84% 30.20 in 10.0 mi Calm Calm - N/A   Clear
9:56 AM 75.0 °F - 64.9 °F 71% 30.19 in 10.0 mi Variable 3.5 mph - N/A   Clear
10:56 AM 80.1 °F 81.7 °F 64.0 °F 58% 30.18 in 10.0 mi South 6.9 mph - N/A   Clear
11:56 AM 82.0 °F 83.1 °F 63.0 °F 52% 30.16 in 10.0 mi SSE 8.1 mph - N/A   Clear
12:56 PM 82.9 °F 84.6 °F 64.9 °F 54% 30.15 in 10.0 mi SE 11.5 mph - N/A   Clear
1:56 PM 82.9 °F 84.0 °F 63.0 °F 51% 30.13 in 10.0 mi SSE 9.2 mph - N/A   Scattered Clouds
2:56 PM 82.9 °F 83.7 °F 62.1 °F 49% 30.10 in 10.0 mi SSE 8.1 mph - N/A   Clear
3:56 PM 82.0 °F 83.4 °F 64.0 °F 54% 30.08 in 10.0 mi SSE 10.4 mph - N/A   Clear
4:56 PM 81.0 °F 83.3 °F 66.9 °F 62% 30.07 in 10.0 mi SSE 8.1 mph - N/A   Clear
5:56 PM 79.0 °F - 68.0 °F 69% 30.06 in 10.0 mi SSE 6.9 mph - N/A   Clear
6:56 PM 77.0 °F - 66.0 °F 69% 30.06 in 10.0 mi South 4.6 mph - N/A   Clear
7:56 PM 75.0 °F - 64.0 °F 69% 30.06 in 10.0 mi South 6.9 mph - N/A   Clear
8:56 PM 73.9 °F - 64.0 °F 71% 30.07 in 10.0 mi SSW 8.1 mph - N/A   Clear
9:56 PM 73.9 °F - 64.0 °F 71% 30.06 in 10.0 mi SSW 6.9 mph - N/A   Clear
10:56 PM 73.0 °F - 64.0 °F 73% 30.04 in 10.0 mi SSW 6.9 mph - N/A   Clear
11:56 PM 72.0 °F - 64.9 °F 78% 30.04 in 10.0 mi SSW 6.9 mph - N/A   Clear